Regional Weather Roundup
Issued by NWS

Home | Current Version | Previous Version | Text Only | Print | Product List | Glossary Off
Versions: 1 2 3 4 5 6 7 8 9 10 11 12 13 14 15 16 17 18 19 20 21 22 23 24 25 26 27 28 29 30 31 32 33 34 35 36 37 38 39 40 41 42 43 44 45 46 47 48 49 50

000
ASUS43 KDMX 190001
RWRIA

WEATHER ROUNDUP FOR IOWA
NATIONAL WEATHER SERVICE DES MOINES IA
600 PM CST THU JAN 18 2018

NOTE: "FAIR" INDICATES FEW OR NO CLOUDS BELOW 12,000 FEET WITH NO
SIGNIFICANT WEATHER AND/OR OBSTRUCTIONS TO VISIBILITY.

* - THESE STATIONS ARE NOT NWS STATIONS...THUS NOT UNDER NWS
QUALITY CONTROL.  THEY ALSO DO NOT REPORT WEATHER SUCH
AS PRECIPITATION OR FOG.

IAZ001>003-012>014-020>022-031>034-043>046-190100-
   NORTHWEST IOWA

CITY           SKY/WX    TMP DP  RH WIND       PRES   REMARKS
CARROLL *      CLOUDY    30  23  74 SW22      29.88S WCI  17
CHEROKEE *     CLOUDY    34  25  70 S7        29.87R WCI  28
DENISON *      CLOUDY    30  21  69 S10G17    29.91F WCI  21
LE MARS *      CLOUDY    36  27  69 S6        29.86S WCI  31
ORANGE CITY *  CLOUDY    36  28  75 SW6       29.85S WCI  31
SHELDON *      CLOUDY    34  28  80 S6        29.83F WCI  29
SIOUX CITY     CLOUDY    34  26  72 SE7       29.88R WCI  28
6HR MIN TEMP:  33; 6HR MAX TEMP:  44;

SPENCER        CLOUDY    34  26  72 SW9       29.86R WCI  27
6HR MIN TEMP:  34; 6HR MAX TEMP:  41;

STORM LAKE *   CLOUDY    34  25  69 SW15      29.86R WCI  24
$$

IAZ055>058-069>071-079>083-090>094-190100-
   SOUTHWEST IOWA

CITY           SKY/WX    TMP DP  RH WIND       PRES   REMARKS
ATLANTIC *     CLOUDY    32  23  69 S12       29.95R WCI  23
AUDUBON *      CLOUDY    30  21  69 S12       29.93S WCI  21
CLARINDA *     CLOUDY    32  25  74 S7          N/A  WCI  26
COUNCIL BLFS * CLOUDY    32  23  69 S12       29.94R WCI  23
CRESTON *      CLOUDY    32  21  64 SW13G18   29.98S WCI  22
HARLAN  *      CLOUDY    30  23  74 S10       29.97R WCI  21
LAMONI         CLOUDY    33  21  61 S14       30.00R WCI  23
6HR MIN TEMP:  31; 6HR MAX TEMP:  36;

RED OAK *      CLOUDY    32  25  74 SW9       29.97S WCI  24
SHENANDOAH *   CLOUDY    32  25  74 S8        29.99R WCI  25
$$

IAZ047>049-059>061-072>074-084-190100-
   CENTRAL IOWA

CITY           SKY/WX    TMP DP  RH WIND       PRES   REMARKS
AMES           CLOUDY    31  24  75 S7        29.92F WCI  24
6HR MIN TEMP:  30; 6HR MAX TEMP:  35;

ANKENY *       CLOUDY    34  21  60 SW13G18   29.96R WCI  25
BOONE *        CLOUDY    32  23  69 SW14      29.90S WCI  22
CHARITON *     CLOUDY    34  21  60 SW10      29.98R WCI  26
DES MOINES     CLOUDY    34  21  59 SW14      29.95S WCI  25
6HR MIN TEMP:  31; 6HR MAX TEMP:  38;

GRINNELL*      CLOUDY    32  22  68 S13       29.96S WCI  22
KNOXVILLE *    CLOUDY    34  19  55 SW12G18   29.96F WCI  25
MARSHALLTOWN   CLOUDY    33  22  63 S16       29.91F WCI  23
6HR MIN TEMP:  30; 6HR MAX TEMP:  35;

NEWTON *       CLOUDY    32  21  64 SW15      29.95S WCI  22
PELLA *        CLOUDY    33  21  61 S8        29.98F WCI  26
PERRY *          N/A     31  22  68 S12       29.93S WCI  22
$$

IAZ004>006-015-016-023>025-035-036-190100-
   NORTH CENTRAL IOWA

CITY           SKY/WX    TMP DP  RH WIND       PRES   REMARKS
ALGONA *       CLOUDY    32 N/A N/A SW9       29.86R WCI  24
CLARION *      CLOUDY    32  27  80 SW15      29.87S WCI  22
ESTHERVILLE    CLOUDY    33  28  81 SW7       29.84R WCI  27
6HR MIN TEMP:  33; 6HR MAX TEMP:  39;

FORT DODGE *   CLOUDY    32  24  72 S13       29.87F WCI  22
MASON CITY     CLOUDY    32  23  69 SW12G18   29.87R WCI  23
6HR MIN TEMP:  29; 6HR MAX TEMP:  34;

FOREST CITY *    N/A     32  27  80 W3        29.86R
WEBSTER CITY * CLOUDY    32  25  74 S12       29.87R WCI  23
IOWA FALLS *     N/A     32  25  74 S14       29.89F WCI  22
$$

IAZ007>011-017>019-026>030-037>042-050>054-066-190100-
   NORTHEAST IOWA

CITY           SKY/WX    TMP DP  RH WIND       PRES   REMARKS
CEDAR RAPIDS     N/A     31  21  66 S10       29.96R WCI  22
6HR MIN TEMP:  30; 6HR MAX TEMP:  36;

CHARLES CITY *   N/A     28  25  86 SW10      29.87S WCI  19
CLINTON *        N/A     27  21  78 SW8       30.01R WCI  19
DECORAH *        N/A     30  23  74 S6        29.86S WCI  24
DUBUQUE          N/A     27  19  72 SW14      29.93S WCI  16
6HR MIN TEMP:  25; 6HR MAX TEMP:  32;

MONTICELLO *     N/A     28  19  69 S7        29.96R WCI  21
OELWEIN *        N/A     28  25  86 S12       29.90F WCI  18
WATERLOO         N/A     30  21  69 S10       29.90F WCI  21
6HR MIN TEMP:  30; 6HR MAX TEMP:  36;

$$

IAZ064-065-067-068-078-190100-
   EAST CENTRAL IOWA

CITY           SKY/WX    TMP DP  RH WIND       PRES   REMARKS
DAVENPORT        N/A     33  20  58 SW16      30.02R WCI  23
6HR MIN TEMP:  29; 6HR MAX TEMP:  36;

IOWA CITY        N/A     33  21  61 S8        30.01S WCI  26
6HR MIN TEMP:  29; 6HR MAX TEMP:  37;

MT. PLEASANT * CLOUDY    32  21  64 SW10      30.03S WCI  24
MUSCATINE *      N/A     32  21  64 S9        30.03R WCI  24
QUAD CITIES      N/A     32  21  64 SW8       30.01S WCI  25
6HR MIN TEMP:  29; 6HR MAX TEMP:  35;

$$

IAZ062-063-075>077-085>089-095>099-190100-
   SOUTHEAST IOWA

CITY           SKY/WX    TMP DP  RH WIND       PRES   REMARKS
BURLINGTON     CLEAR     30  20  66 SW9       30.04R WCI  22
6HR MIN TEMP:  28; 6HR MAX TEMP:  35;

FAIRFIELD *    CLOUDY    32  19  59 S8        30.01R WCI  25
FORT MADISON * CLEAR     34  21  60 SW8       30.05S WCI  27
KEOKUK *       CLEAR     34  21  60 SW12      30.04S WCI  25
OSKALOOSA *      N/A     31  23  71 SW12      29.99S WCI  22
OTTUMWA        CLOUDY    33  20  58 SW12      30.00R WCI  24
6HR MIN TEMP:  32; 6HR MAX TEMP:  37;

WASHINGTON *   CLOUDY    32  23  69 SW17G25   30.01S WCI  21
$$

ABBREVIATIONS USED IN REMARKS
   TC - TEMPERATURES IN CELSIUS
  WCI - WIND CHILL INDEX
   HX - HEAT INDEX
  VSB - VISIBILITY
$$





USA.gov is the U.S. government's official web portal to all federal, state and local government web resources and services.